User: anonymous   Login
Location: Unspecified
(0.0000°N, 0.0000°E)
Time: 10:17:08
(UTC+00:00)
Language:

OV3-3 - Orbit

View from above orbital plane
View from above orbital plane
View from above satellite
View from above satellite

Ground track
Ground track

The orbit data is extracted from the following two-line orbital elements,

1  2389U 66070A   18139.90163840 +.00002623 +00000-0 +14485-3 0  9992
2  2389 081.3878 255.8941 1244932 189.2295 168.3871 12.91596894213266
Epoch (UTC): 19 May 2018 21:38:21
Eccentricity: 0.1244932
inclination: 81.3878°
perigee height: 340 km
apogee height: 2250 km
right ascension of ascending node: 255.8941°
argument of perigee: 189.2295°
revolutions per day: 12.91596894
mean anomaly at epoch: 168.3871°
orbit number at epoch: 21326

The dashed part of the orbit path shows where the satellite is in the earth's shadow,  

DLR